Location: Lombard
(41.8800°N, 88.0080°W)
Time: 04:14:23
(UTC-05:00)

Vanguard 2 Rocket - Pass Details

Date: 29 February 2024
Orbit: 555 x 3307 km, 32.9° (Epoch: 12 April)

Event Time Altitude Azimuth Distance (km) Brightness Sun altitude
Rises 14:15:18 0° 249° (WSW) 3,871 10.9 32.2°
Reaches altitude 10° 14:17:35 10° 244° (WSW) 3,174 10.9 32.0°
Maximum altitude 14:25:30 52° 170° (S) 2,104 9.6 31.0°
Drops below altitude 10° 14:39:22 10° 100° (E) 5,375 10.6 29.2°
Sets 14:44:31 0° 97° (E) 6,744 11.0 28.5°
